sat.trackr.live / text

‹ back to catalog

UNKNOWN

NORAD 87672

UNKNOWN UNKNOWN UNKNOWN

§ Identity

Operator
Country
Launch date
Launch site
Launch vehicle
Mass (kg)
RCS (m²)

External: N2YO · Heavens-Above

§ Orbital elements

Epoch: 2026-05-24T01:17:08.174976Z

Period
100.80 min
Inclination
70.8562°
Eccentricity
0.0055763
Mean motion
14.28582287 rev/d
Perigee alt
756.5 km
Apogee alt
836.5 km
Semi-major
7,174.6 km
B*
5.7683e-4
RAAN
15.7639°
Arg perigee
23.8169°
Mean anomaly
336.5521°
Rev number
64,763

§ Raw data

UNKNOWN1 87672U          26144.05356684  .00001422  00000+0  57683-3 0  99942 87672  70.8562  15.7639 0055763  23.8169 336.5521 14.28582287647634

JSON: /api/v1/satellites/87672 · /tle

For live sub-satellite position, see the globe view (requires WebGL).

§ Visibility from observer

Set your observer location to see the next 7 days of passes ≥ 10°. The values pass through the URL so the page stays shareable.

No JS? Fill the form by hand. The geolocation button needs JavaScript.